User: anonymous   Login
Location: ??????
(42.0089°N, 44.3281°E)
Time: 09:47:25
(UTC+00:00)
Language:

COSMOS 1275 DEB - Orbit

View from above orbital plane
View from above orbital plane
View from above satellite
View from above satellite

Ground track
Ground track

The orbit data is extracted from the following two-line orbital elements,

1 42180U 81053SU  22224.32130162  .00002576  00000-0  98349-3 0  9998
2 42180  82.8823  70.6821 0021956 136.5767  38.6105 14.30332525996948
Epoch (UTC): 12 August 2022 07:42:40
Eccentricity: 0.0021956
inclination: 82.8823°
perigee height: 775 km
apogee height: 806 km
right ascension of ascending node: 70.6821°
argument of perigee: 136.5767°
revolutions per day: 14.30332525
mean anomaly at epoch: 38.6105°
orbit number at epoch: 99694

The dashed part of the orbit path shows where the satellite is in the earth's shadow,  

DLR